星链-2115 (STARLINK-2115 )

导读 | 星芒AI

STARLINK-2115 是 SpaceX Starlink 项目中的一颗低轨通信卫星,属于第二代 Starlink 卫星(Gen2)系列。该卫星于 2023 年发射,旨在增强全球互联网覆盖,提供更高速度和更低延迟的网络服务。它运行在约 550 公里的轨道高度,配备先进通信设备,支持大规模宽带接入。作为 Starlink 卫星群的一部分,STARLINK-2115 有助于改善偏远地区的网络连接,推动全球数字包容性发展。

基本信息
目录编号:
47394
目录名称:
STARLINK-2115
国际标识:
2021-005AX
轨道中心:
EARTH
卫星名称:
星链-2115
卫星全名:
星链-2115 (STARLINK-2115 )
卫星状态:
已陨落 最后检测时间 2024-12-31
发射日期:
2021-01-20 UTC
国别 :
美国 (US)
星等 :
--
轨道信息
数据来源 国际轨道数据
星历时间: 2024-12-31T12:43:47+0800
轨道信息已过期350天
半长轴: 6530.804km
偏心率: 0.0003439
轨道倾角: 53.036°
近地点辐角 265.540°
升交点赤经 150.598°
平近点角 217.613°
近地点: 150.423km
远地点: 154.915km
周期: 87.541分钟
每日圈数: 16.449506
详细信息
固有亮度:
5
最大亮度:
2.5
卫星平台:
Starlink V1.0
覆盖范围:
全球
运营商:
太空探索技术公司
运营商所在国:
美国
制造商(研发单位):
太空探索技术公司
制造商所在国:
美国
使用方式:
暂无
卫星简介
星链(Starlink)计划是由太空探索技术公司(SpaceX)提出的一个巨型低轨卫星互联网星座项目,计划在2019年至2024年间在太空搭建由约1.2万颗卫星组成的“星链”网络,其中1584颗将部署在地球上空550千米处的近地轨道,并从2020年开始工作。该卫星仍在工作。